Weather History for Richmond, KY

Change the Weather History Date:

Sunday, April 7, 2013

  Actual Average (KLOZ) Record (KLOZ)
Temperature  
Mean Temperature 65 °F 54 °F  
Max Temperature 73 °F 66 °F 84 °F (2001)
Min Temperature 57 °F 42 °F 21 °F (1982)
Degree Days  
Heating Degree Days 0 11  
Month to date heating degree days 86  
Since 1 July heating degree days 3911  
Cooling Degree Days 0 0  
Month to date cooling degree days 0  
Year to date cooling degree days 3  
Growing Degree Days 15 (Base 50)    
Moisture  
Dew Point 38 °F    
Average Humidity 38    
Maximum Humidity 48    
Minimum Humidity 27    
Precipitation  
Precipitation 0.00 in 0.13 in 2.02 in (1972)
Month to date precipitation 0.89  
Year to date precipitation 12.19  
Sea Level Pressure  
Sea Level Pressure 30.01 in    
Wind  
Wind Speed 11 mph (SW)    
Max Wind Speed 21 mph    
Max Gust Speed 28 mph    
Visibility 10 miles    
Events      
T = Trace of Precipitation, MM = Missing Value Source: NWS Daily Summary

Daily Weather History Graph

Daily Weather History Graph

Search for Another Location

Airport:

Trip Planner

Search our weather history database for the weather conditions in past years. The results will help you decide how hot, cold, wet, or windy it might be!

Date:

Astronomy

Apr. 07, 2013 Rise Set
Actual Time 7:13 AM EDT 8:05 PM EDT
Civil Twilight 6:46 AM EDT 8:32 PM EDT
Nautical Twilight 6:15 AM EDT 9:04 PM EDT
Astronomical Twilight 5:42 AM EDT 9:36 PM EDT
Moon 5:27 AM EDT (4/7) 5:39 PM EDT (4/7)
Length of Visible Light 13h 45m
Length of Day
12h 52m
Waning Crescent, 8% of the Moon is Illuminated
Apr 7
Waning Crescent
Apr 10
New
Apr 18
First Quarter
Apr 25
Full
May 2
Last Quarter

Hourly Weather History & Observations

Time (EDT) Temp. Dew Point Humidity Pressure Visibility Wind Dir Wind Speed Gust Speed Precip Events Conditions
12:15 AM 60.8 °F 32.0 °F 34% 30.02 in 10.0 mi SSW 9.2 mph - N/A   Clear
12:35 AM 60.8 °F 32.0 °F 34% 30.02 in 10.0 mi SSW 9.2 mph - N/A   Clear
12:55 AM 60.8 °F 33.8 °F 36% 30.02 in 10.0 mi SSW 8.1 mph - N/A   Clear
1:15 AM 60.8 °F 33.8 °F 36% 30.01 in 10.0 mi South 10.4 mph - N/A   Clear
1:35 AM 60.8 °F 33.8 °F 36% 30.01 in 10.0 mi South 9.2 mph 18.4 mph N/A   Clear
1:55 AM 60.8 °F 33.8 °F 36% 30.00 in 10.0 mi South 10.4 mph 17.3 mph N/A   Clear
2:15 AM 60.8 °F 33.8 °F 36% 29.99 in 10.0 mi South 10.4 mph - N/A   Clear
2:35 AM 60.8 °F 33.8 °F 36% 29.98 in 10.0 mi South 11.5 mph 18.4 mph N/A   Clear
2:55 AM 60.8 °F 32.0 °F 34% 29.97 in 10.0 mi South 15.0 mph 21.9 mph N/A   Clear
3:15 AM 60.8 °F 33.8 °F 36% 29.98 in 10.0 mi SSW 12.7 mph 20.7 mph N/A   Clear
3:35 AM 60.8 °F 33.8 °F 36% 29.98 in 10.0 mi SSW 11.5 mph 17.3 mph N/A   Clear
3:55 AM 60.8 °F 33.8 °F 36% 29.98 in 10.0 mi SSW 18.4 mph 27.6 mph N/A   Clear
4:15 AM 60.8 °F 33.8 °F 36% 29.98 in 10.0 mi SSW 17.3 mph 20.7 mph N/A   Clear
4:35 AM 59.0 °F 33.8 °F 39% 29.98 in 10.0 mi SSW 12.7 mph 18.4 mph N/A   Clear
4:55 AM 59.0 °F 33.8 °F 39% 29.98 in 10.0 mi SSW 13.8 mph 19.6 mph N/A   Clear
5:15 AM 59.0 °F 33.8 °F 39% 29.98 in 10.0 mi SSW 11.5 mph 17.3 mph N/A   Clear
5:35 AM 59.0 °F 35.6 °F 42% 29.99 in 10.0 mi SSW 13.8 mph 17.3 mph N/A   Clear
5:55 AM 59.0 °F 35.6 °F 42% 29.98 in 10.0 mi SSW 10.4 mph 18.4 mph N/A   Clear
6:15 AM 59.0 °F 35.6 °F 42% 29.98 in 10.0 mi South 13.8 mph 18.4 mph N/A   Clear
6:35 AM 57.2 °F 35.6 °F 44% 29.99 in 10.0 mi SSW 10.4 mph 17.3 mph N/A   Clear
6:55 AM 57.2 °F 35.6 °F 44% 29.99 in 10.0 mi SSW 11.5 mph - N/A   Clear
7:15 AM 57.2 °F 35.6 °F 44% 30.00 in 10.0 mi SSW 12.7 mph 17.3 mph N/A   Clear
7:35 AM 57.2 °F 35.6 °F 44% 30.01 in 10.0 mi South 10.4 mph 16.1 mph N/A   Clear
7:55 AM 57.2 °F 37.4 °F 48% 30.02 in 10.0 mi SSW 10.4 mph - N/A   Clear
8:15 AM 59.0 °F 37.4 °F 45% 30.02 in 10.0 mi SSW 12.7 mph 18.4 mph N/A   Clear
8:35 AM 59.0 °F 37.4 °F 45% 30.03 in 10.0 mi SSW 15.0 mph 18.4 mph N/A   Clear
8:55 AM 60.8 °F 37.4 °F 42% 30.03 in 10.0 mi SSW 12.7 mph 21.9 mph N/A   Clear
9:15 AM 60.8 °F 37.4 °F 42% 30.03 in 10.0 mi SSW 16.1 mph 24.2 mph N/A   Scattered Clouds
9:35 AM 60.8 °F 39.2 °F 45% 30.04 in 10.0 mi SW 15.0 mph 21.9 mph N/A   Mostly Cloudy
9:55 AM 62.6 °F 39.2 °F 42% 30.04 in 10.0 mi SW 16.1 mph 24.2 mph N/A   Overcast
10:15 AM 62.6 °F 41.0 °F 45% 30.04 in 10.0 mi SSW 20.7 mph 26.5 mph N/A   Overcast
10:35 AM 64.4 °F 41.0 °F 42% 30.04 in 10.0 mi SSW 18.4 mph 25.3 mph N/A   Mostly Cloudy
10:55 AM 64.4 °F 42.8 °F 45% 30.04 in 10.0 mi SW 15.0 mph 24.2 mph N/A   Overcast
11:15 AM 64.4 °F 42.8 °F 45% 30.05 in 10.0 mi SW 12.7 mph 23.0 mph N/A   Overcast
11:35 AM 64.4 °F 42.8 °F 45% 30.05 in 10.0 mi SW 16.1 mph 24.2 mph N/A   Overcast
12:15 PM 66.2 °F 42.8 °F 43% 30.05 in 10.0 mi SW 18.4 mph 26.5 mph N/A   Overcast
12:35 PM 66.2 °F 42.8 °F 43% 30.05 in 10.0 mi SW 11.5 mph 23.0 mph N/A   Overcast
12:55 PM 68.0 °F 41.0 °F 37% 30.04 in 10.0 mi SW 20.7 mph 27.6 mph N/A   Overcast
1:15 PM 66.2 °F 39.2 °F 37% 30.04 in 10.0 mi WSW 19.6 mph 25.3 mph N/A   Overcast
1:35 PM 68.0 °F 41.0 °F 37% 30.03 in 10.0 mi SW 10.4 mph 19.6 mph N/A   Overcast
1:55 PM 68.0 °F 42.8 °F 40% 30.03 in 10.0 mi SW 12.7 mph 19.6 mph N/A   Overcast
2:15 PM 69.8 °F 41.0 °F 35% 30.03 in 10.0 mi SW 10.4 mph 23.0 mph N/A   Overcast
2:35 PM 69.8 °F 41.0 °F 35% 30.02 in 10.0 mi WSW 16.1 mph 23.0 mph N/A   Overcast
2:55 PM 69.8 °F 42.8 °F 38% 30.02 in 10.0 mi SW 9.2 mph - N/A   Overcast
3:15 PM 73.4 °F 41.0 °F 31% 30.01 in 10.0 mi WSW 17.3 mph 23.0 mph N/A   Overcast
3:35 PM 71.6 °F 41.0 °F 33% 30.00 in 10.0 mi WSW 13.8 mph 20.7 mph N/A   Overcast
3:55 PM 71.6 °F 41.0 °F 33% 30.00 in 10.0 mi WSW 11.5 mph 19.6 mph N/A   Overcast
4:15 PM 71.6 °F 41.0 °F 33% 30.00 in 10.0 mi WSW 13.8 mph 20.7 mph N/A   Overcast
4:35 PM 71.6 °F 41.0 °F 33% 30.00 in 7.0 mi SW 10.4 mph 19.6 mph N/A   Overcast
5:15 PM 71.6 °F 39.2 °F 31% 29.99 in 10.0 mi SW 10.4 mph 17.3 mph N/A   Overcast
5:35 PM 73.4 °F 41.0 °F 31% 29.99 in 10.0 mi SW 11.5 mph - N/A   Mostly Cloudy
5:55 PM 71.6 °F 37.4 °F 29% 30.00 in 10.0 mi WSW 11.5 mph 17.3 mph N/A   Mostly Cloudy
6:15 PM 71.6 °F 37.4 °F 29% 30.00 in 10.0 mi WSW 11.5 mph 16.1 mph N/A   Overcast
6:35 PM 71.6 °F 35.6 °F 27% 30.00 in 10.0 mi WSW 9.2 mph - N/A   Overcast
6:55 PM 69.8 °F 35.6 °F 28% 30.00 in 10.0 mi SW 11.5 mph - N/A   Mostly Cloudy
7:15 PM 69.8 °F 35.6 °F 28% 29.99 in 10.0 mi SW 6.9 mph - N/A   Mostly Cloudy
7:35 PM 68.0 °F 37.4 °F 33% 29.99 in 10.0 mi SW 5.8 mph - N/A   Overcast
8:15 PM 68.0 °F 37.4 °F 33% 29.99 in 10.0 mi WSW 5.8 mph - N/A   Overcast
8:35 PM 66.2 °F 37.4 °F 35% 29.99 in 10.0 mi West 4.6 mph - N/A   Overcast
8:55 PM 66.2 °F 37.4 °F 35% 29.99 in 10.0 mi WSW 4.6 mph - N/A   Overcast
9:15 PM 66.2 °F 37.4 °F 35% 30.00 in 10.0 mi SW 4.6 mph - N/A   Overcast
9:35 PM 66.2 °F 37.4 °F 35% 30.00 in 10.0 mi SW 4.6 mph - N/A   Overcast
10:15 PM 64.4 °F 39.2 °F 40% 30.01 in 10.0 mi South 4.6 mph - N/A   Overcast
10:35 PM 64.4 °F 39.2 °F 40% 30.01 in 10.0 mi South 5.8 mph - N/A   Overcast
10:55 PM 64.4 °F 39.2 °F 40% 30.02 in 10.0 mi South 5.8 mph - N/A   Scattered Clouds
11:15 PM 62.6 °F 39.2 °F 42% 30.02 in 10.0 mi South 4.6 mph - N/A   Scattered Clouds
11:35 PM 62.6 °F 39.2 °F 42% 30.02 in 10.0 mi South 5.8 mph - N/A   Scattered Clouds